Flag for Canada Weather past 2 weeks in Kelowna, British Columbia, Canada

Now
41 °F

Mostly cloudy.


Feels Like: 36 °F
Forecast: 36 / 50 °F
Wind: 7 mph from Southeast

Location: Kelowna Airport

Current Time: Mar 31, 2015 at 10:34:58 PM

Latest Report: Mar 31, 2015 at 10:00 PM


Visibility: 9 mi

Pressure: 30.02 "Hg

Humidity: 76%

Dew point: 34 °F

Location of KelownaLocation

Historic Weather in Kelowna — Graph

°F

Kelowna temperature yesterday

Maximum temperature yesterday: 66 °F (at 6:00 PM)
Minimum temperature yesterday: 43 °F (at 6:00 AM)
Average temperature yesterday: 54 °F

Past Weeks' High & Low Weather Summary

 TemperatureHumidityPressure
High66 °F (Mar 30, 6:00 PM)100% (Mar 17, 8:00 AM)30.32 "Hg (Mar 17, 8:00 AM)
Low28 °F (Mar 22, 5:00 AM)23% (Mar 23, 4:00 PM)29.66 "Hg (Mar 31, 4:00 AM)
Average47 °F72%30.04 "Hg
* Reported Mar 16 9:00 PM — Mar 31 9:00 PM, Kelowna, Weather by CustomWeather, © 2015

Note: Actual official high and low records may vary slightly from our data, if they occured in-between our weather recording intervals... More about our weather records

Advertising

Kelowna weather history for previous 24 hours

 ConditionsComfort  
Time TempWeatherWind HumidityBarometerVisibility
9:00 PM
Tue, Mar 31
43 °FMostly cloudy.14 mph71%30.01 "Hg9 mi
8:00 PM46 °FMostly cloudy.12 mph50%29.97 "Hg9 mi
7:49 PM46 °FOvercast.12 mph50%29.97 "Hg9 mi
7:00 PM48 °FMore clouds than sun.16 mph43%29.95 "Hg9 mi
6:00 PM50 °FMostly cloudy.9 mph40%29.94 "Hg9 mi
5:00 PM50 °FOvercast.7 mph37%29.93 "Hg9 mi
4:00 PM50 °FOvercast.13 mph43%29.92 "Hg9 mi
3:00 PM50 °FOvercast.20 mph43%29.90 "Hg9 mi
2:00 PM55 °FOvercast.15 mph26%29.83 "Hg9 mi
1:00 PM55 °FMostly cloudy.23 mph24%29.81 "Hg9 mi
12:00 PM57 °FSunny.22 mph23%29.80 "Hg9 mi
11:00 AM57 °FPartly sunny.14 mph25%29.78 "Hg9 mi
10:00 AM54 °FSunny.15 mph38%29.77 "Hg9 mi
9:00 AM50 °FOvercast.14 mph54%29.76 "Hg9 mi
8:00 AM48 °FOvercast.16 mph62%29.74 "Hg9 mi
7:00 AM46 °FLight rain. Mostly cloudy.8 mph87%29.70 "Hg9 mi
6:00 AM43 °FPassing clouds.No wind87%29.66 "Hg9 mi
5:00 AM43 °FPassing clouds.5 mph93%29.66 "Hg9 mi
4:00 AM45 °FPassing clouds.5 mph87%29.66 "Hg9 mi
3:00 AM46 °FPartly cloudy.No wind82%29.68 "Hg9 mi
2:00 AM46 °FPassing clouds.5 mph82%29.71 "Hg9 mi
1:00 AM48 °FPartly cloudy.3 mph82%29.74 "Hg9 mi
12:00 AM50 °FOvercast.5 mph76%29.75 "Hg9 mi
11:00 PM
Mon, Mar 30
52 °FOvercast.No wind72%29.77 "Hg9 mi
10:00 PM46 °FPassing clouds.2 mph82%29.78 "Hg9 mi
Weather by CustomWeather, © 2015

See weather overviewHow to use our weather pages